Atqasuk Edward Burnell Sr Mem, AK

12:09 PM AKDT on July 15, 2019 (GMT -0800)
Atqasuk Edward Burnell Sr Mem

Weather History for PATQ - May, 2019

Change the Weather History Date:

Monday, May 20, 2019

  Actual Average (PABR) Record (PABR)
Temperature  
Mean Temperature 31 °F 24 °F  
Max Temperature 35 °F 28 °F 42 °F (1931)
Min Temperature 28 °F 19 °F 4 °F (2000)
Degree Days  
Heating Degree Days 34 41  
Month to date heating degree days 939  
Since 1 July heating degree days 18099  
Cooling Degree Days 0 0  
Month to date cooling degree days 0  
Year to date cooling degree days 0  
Moisture  
Dew Point 27 °F    
Average Humidity 89    
Maximum Humidity 96    
Minimum Humidity 75    
Precipitation  
Precipitation 0.00 in 0.01 in 0.08 in (2004)
Month to date precipitation 0.10  
Year to date precipitation 0.62  
Snow  
Snow 0.00 in 0.10 in 0.60 in (1997)
Month to date snowfall 1.8  
Since 1 July snowfall 36.1  
Snow Depth -    
Sea Level Pressure  
Sea Level Pressure 30.01 in    
Wind  
Wind Speed 11 mph (ENE)    
Max Wind Speed 14 mph    
Max Gust Speed -    
Visibility 7 miles    
Events Rain , Snow    
T = Trace of Precipitation, MM = Missing Value Source: NWS Daily Summary

Daily Weather History Graph

Daily Weather History Graph

Search for Another Location

Airport or City:

Astronomy

May. 20, 2019 Rise Set
Actual Time 2:58 AM AKDT 1:53 AM AKDT
Civil Twilight Sun does not set Sun does not set
Nautical Twilight Sun does not set Sun does not set
Astronomical Twilight Sun does not set Sun does not set
Moon No Moon Rise No Moon Set
Length of Visible Light 24h 00m
Length of Day
22h 55m
Waning Gibbous, 96% of the Moon is Illuminated
May 20
Waning Gibbous
May 26
Last Quarter
Jun 3
New
Jun 9
First Quarter
Jun 17
Full

Hourly Weather History & Observations

Time (AKDT) Temp. Windchill Dew Point Humidity Pressure Visibility Wind Dir Wind Speed Gust Speed Precip Events Conditions
12:31 AM 28.4 °F 17.5 °F 26.6 °F 93% 30.00 in 2.0 mi ENE 13.8 mph - 0.00 in Snow Light Snow
12:40 AM 28.4 °F 17.5 °F 26.6 °F 93% 30.00 in 8.0 mi ENE 13.8 mph - 0.00 in Snow Light Snow
12:56 AM 28.0 °F 17.5 °F 27.0 °F 96% 30.02 in 8.0 mi ENE 12.7 mph - 0.00 in Snow Light Snow
1:56 AM 28.0 °F 18.1 °F 26.1 °F 92% 30.03 in 6.0 mi NE 11.5 mph - 0.00 in Snow Light Snow
2:56 AM 28.0 °F 19.3 °F 26.1 °F 92% 30.03 in 5.0 mi ENE 9.2 mph - 0.00 in Snow Light Snow
3:43 AM 28.4 °F 19.7 °F 26.6 °F 93% 30.01 in 8.0 mi NE 9.2 mph - 0.00 in Snow Light Snow
3:56 AM 28.0 °F 18.6 °F 27.0 °F 96% 30.03 in 4.0 mi ENE 10.4 mph - 0.00 in Snow Light Snow
4:21 AM 28.4 °F 19.7 °F 26.6 °F 93% 30.01 in 5.0 mi East 9.2 mph - 0.00 in Snow Light Snow
4:56 AM 28.0 °F 18.1 °F 26.1 °F 92% 30.03 in 5.0 mi ENE 11.5 mph - 0.00 in Snow Light Snow
5:16 AM 28.4 °F 19.1 °F 26.6 °F 93% 30.01 in 8.0 mi ENE 10.4 mph - 0.00 in Snow Light Snow
5:28 AM 28.4 °F 19.1 °F 26.6 °F 93% 30.00 in 6.0 mi ENE 10.4 mph - 0.00 in Snow Light Snow
5:56 AM 28.0 °F 19.3 °F 27.0 °F 96% 30.02 in 7.0 mi ENE 9.2 mph - 0.00 in Snow Light Snow
6:14 AM 28.4 °F 20.4 °F 26.6 °F 93% 30.00 in 8.0 mi ENE 8.1 mph - 0.00 in Snow Light Snow
6:21 AM 28.4 °F 19.7 °F 26.6 °F 93% 30.00 in 5.0 mi ENE 9.2 mph - 0.00 in Snow Light Snow
6:43 AM 28.4 °F 19.1 °F 26.6 °F 93% 30.00 in 2.0 mi East 10.4 mph - 0.00 in Snow Light Snow
6:47 AM 28.4 °F 19.1 °F 26.6 °F 93% 30.00 in 3.0 mi ENE 10.4 mph - 0.00 in Snow Light Snow
6:56 AM 28.9 °F 19.8 °F 27.0 °F 92% 30.02 in 9.0 mi East 10.4 mph - 0.00 in Snow Light Snow
7:56 AM 28.9 °F 19.8 °F 27.0 °F 92% 30.03 in 5.0 mi ENE 10.4 mph - 0.00 in Snow Light Snow
8:56 AM 30.0 °F 21.7 °F 27.0 °F 88% 30.03 in 9.0 mi NE 9.2 mph - 0.00 in   Clear
9:56 AM 30.0 °F 20.0 °F 27.0 °F 88% 30.02 in 6.0 mi ENE 12.7 mph - 0.00 in Snow Light Snow
10:27 AM 30.2 °F 20.8 °F 26.6 °F 86% 30.00 in 1.8 mi ENE 11.5 mph - 0.00 in Snow Light Snow
10:32 AM 30.2 °F 21.9 °F 26.6 °F 86% 30.00 in 2.0 mi ENE 9.2 mph - 0.00 in Snow Light Snow
10:42 AM 30.2 °F 21.3 °F 26.6 °F 86% 30.00 in 9.0 mi ENE 10.4 mph - 0.00 in   Scattered Clouds
10:56 AM 30.9 °F 22.2 °F 27.0 °F 85% 30.02 in 9.0 mi ENE 10.4 mph - 0.00 in   Partly Cloudy
11:56 AM 32.0 °F 23.6 °F 27.0 °F 82% 30.02 in 10.0 mi ENE 10.4 mph - 0.00 in   Scattered Clouds
12:56 PM 32.0 °F 24.2 °F 26.1 °F 79% 30.02 in 10.0 mi ENE 9.2 mph - 0.00 in   Partly Cloudy
1:56 PM 33.1 °F 24.9 °F 27.0 °F 78% 30.01 in 10.0 mi ENE 10.4 mph - 0.00 in   Partly Cloudy
2:56 PM 34.0 °F 26.6 °F 27.0 °F 75% 30.01 in 10.0 mi East 9.2 mph - 0.00 in   Clear
3:56 PM 32.0 °F 24.8 °F 28.0 °F 85% 30.01 in 10.0 mi NE 8.1 mph - 0.00 in   Clear
4:19 PM 32.0 °F 25.6 °F 30.2 °F 93% 29.98 in 2.0 mi ENE 6.9 mph - 0.00 in Snow Light Snow
4:22 PM 33.8 °F 27.0 °F 30.2 °F 87% 29.98 in 2.0 mi East 8.1 mph - 0.00 in Snow Light Snow
4:31 PM 33.8 °F 25.3 °F 28.4 °F 81% 29.98 in 9.0 mi East 11.5 mph - 0.00 in Snow Light Snow
4:46 PM 33.8 °F 24.8 °F 28.4 °F 81% 29.98 in 10.0 mi East 12.7 mph - 0.00 in   Partly Cloudy
4:56 PM 34.0 °F 26.0 °F 28.9 °F 82% 30.00 in 10.0 mi East 10.4 mph - 0.00 in Rain Light Rain
5:56 PM 34.0 °F 25.0 °F 28.9 °F 82% 30.00 in 10.0 mi ENE 12.7 mph - 0.00 in   Partly Cloudy
6:56 PM 33.1 °F 23.9 °F 28.0 °F 82% 29.99 in 10.0 mi ENE 12.7 mph - 0.00 in   Clear
7:56 PM 33.1 °F 24.4 °F 28.9 °F 85% 29.99 in 10.0 mi East 11.5 mph - 0.00 in Rain Light Rain
8:56 PM 32.0 °F 25.6 °F 28.9 °F 88% 29.99 in 10.0 mi ENE 6.9 mph - 0.00 in   Clear
9:56 PM 30.9 °F 22.8 °F 28.0 °F 89% 29.99 in 10.0 mi East 9.2 mph - 0.00 in   Partly Cloudy
10:47 PM 30.2 °F 21.9 °F 28.4 °F 93% 29.97 in 10.0 mi ENE 9.2 mph - 0.00 in   Partly Cloudy
10:56 PM 30.9 °F 22.8 °F 28.9 °F 92% 30.00 in 10.0 mi ENE 9.2 mph - 0.00 in   Partly Cloudy
11:56 PM 30.0 °F 21.7 °F 28.0 °F 92% 30.00 in 9.0 mi ENE 9.2 mph - 0.00 in Snow Light Snow